Terminal Aerodrome Forecast
Issued by NWS

Home | Current Version | Previous Version | Text Only | Print | Product List | Glossary On
Versions: 1 2 3 4 5 6 7 8 9 10 11 12 13 14 15 16 17
000
FTUS41 KBTV 262323 AAA
TAFRUT
TAF AMD
KRUT 262323Z 2623/2724 32004KT P6SM SKC
     FM270100 13005KT P6SM SKC
     FM271200 00000KT P6SM FEW045
      AMD LTD TO CLD VIS AND WIND=

USA.gov is the U.S. government's official web portal to all federal, state and local government web resources and services.